Location: Arcusa
(42.3167°N, 0.0833°W)
Time: 05:36:42
(UTC+00:00)

Cosmos 1328 - Pass Details

Date: 25 January 2020
Orbit: 535 x 549 km, 82.5° (Epoch: 23 February)

Event Time Altitude Azimuth Distance (km) Brightness Sun altitude
Exits shadow 05:20:43 21° 1° (N) 1,239 5.5 -22.1°
Maximum altitude 05:23:15 69° 81° (E) 580 4.0 -21.7°
Drops below altitude 10° 05:27:10 10° 165° (SSE) 1,791 6.7 -20.9°
Sets 05:29:18 0° 168° (SSE) 2,675 7.6 -20.6°
